TimePST,TemperatureF,Dew PointF,Humidity,Sea Level PressureIn,VisibilityMPH,Wind Direction,Wind SpeedMPH,Gust SpeedMPH,PrecipitationIn,Events,Conditions,WindDirDegrees,DateUTC
12:53 AM,34.0,34.0,100,30.38,7.0,West,5.8,-,N/A,,Clear,260,2013-11-13 08:53:00
1:53 AM,34.0,33.1,96,30.40,8.0,South,5.8,-,N/A,,Mostly Cloudy,170,2013-11-13 09:53:00
2:53 AM,37.0,36.0,96,30.39,8.0,SSE,4.6,-,N/A,,Overcast,150,2013-11-13 10:53:00
3:53 AM,41.0,39.0,93,30.39,10.0,WSW,4.6,-,N/A,,Overcast,250,2013-11-13 11:53:00
4:32 AM,39.9,37.9,93,30.36,10.0,SW,5.8,-,N/A,,Overcast,230,2013-11-13 12:32:00
4:53 AM,39.0,37.9,96,30.39,10.0,SSW,4.6,-,N/A,,Overcast,210,2013-11-13 12:53:00
5:53 AM,39.9,37.9,93,30.40,10.0,SW,4.6,-,N/A,,Overcast,220,2013-11-13 13:53:00
6:53 AM,39.9,37.9,93,30.41,10.0,WSW,4.6,-,N/A,,Overcast,240,2013-11-13 14:53:00
7:13 AM,39.9,37.9,93,30.38,10.0,SSW,4.6,-,N/A,,Scattered Clouds,210,2013-11-13 15:13:00
7:53 AM,41.0,39.0,93,30.43,10.0,WSW,4.6,-,N/A,,Clear,240,2013-11-13 15:53:00
8:53 AM,46.9,39.9,77,30.43,10.0,West,5.8,-,N/A,,Clear,270,2013-11-13 16:53:00
9:53 AM,50.0,35.1,57,30.43,10.0,NNW,13.8,-,N/A,,Clear,330,2013-11-13 17:53:00
10:53 AM,51.1,34.0,52,30.42,10.0,NW,6.9,-,N/A,,Clear,320,2013-11-13 18:53:00
11:53 AM,52.0,33.1,49,30.40,10.0,Variable,5.8,-,N/A,,Partly Cloudy,0,2013-11-13 19:53:00
12:53 PM,53.1,33.1,47,30.39,10.0,NW,5.8,-,N/A,,Clear,310,2013-11-13 20:53:00
1:53 PM,52.0,32.0,47,30.38,10.0,West,5.8,-,N/A,,Clear,280,2013-11-13 21:53:00
2:53 PM,52.0,33.1,49,30.37,10.0,NW,5.8,-,N/A,,Clear,320,2013-11-13 22:53:00
3:53 PM,48.0,33.1,56,30.36,10.0,NW,4.6,-,N/A,,Clear,320,2013-11-13 23:53:00
4:53 PM,39.0,32.0,76,30.38,10.0,WSW,9.2,-,N/A,,Clear,240,2013-11-14 00:53:00
5:53 PM,34.0,30.0,85,30.40,10.0,ENE,3.5,-,N/A,,Clear,70,2013-11-14 01:53:00
6:53 PM,32.0,28.9,88,30.39,10.0,South,3.5,-,N/A,,Clear,170,2013-11-14 02:53:00
7:53 PM,30.0,28.0,92,30.39,10.0,WSW,3.5,-,N/A,,Clear,250,2013-11-14 03:53:00
8:53 PM,27.0,26.1,96,30.38,10.0,West,3.5,-,N/A,,Clear,280,2013-11-14 04:53:00
9:53 PM,26.1,25.0,96,30.36,8.0,Calm,Calm,-,N/A,,Clear,0,2013-11-14 05:53:00
10:14 PM,24.1,23.0,96,30.30,1.8,Calm,Calm,-,N/A,,Clear,0,2013-11-14 06:14:00
10:31 PM,26.1,25.0,96,30.30,4.0,Calm,Calm,-,N/A,,Clear,0,2013-11-14 06:31:00
10:40 PM,25.0,25.0,100,30.29,1.2,Calm,Calm,-,N/A,,Clear,0,2013-11-14 06:40:00
10:48 PM,24.8,24.8,100,30.29,0.5,Calm,Calm,-,N/A,Fog,Light Freezing Fog,0,2013-11-14 06:48:00
10:53 PM,25.0,23.0,92,30.34,0.5,East,3.5,-,N/A,Fog,Light Freezing Fog,80,2013-11-14 06:53:00
11:14 PM,24.1,24.1,100,30.29,0.5,Calm,Calm,-,N/A,Fog,Light Freezing Fog,0,2013-11-14 07:14:00
11:27 PM,24.1,21.9,91,30.28,1.0,NE,3.5,-,N/A,,Clear,50,2013-11-14 07:27:00
11:35 PM,25.0,23.0,92,30.28,0.8,NE,3.5,-,N/A,,Mist,50,2013-11-14 07:35:00
11:53 PM,24.1,24.1,100,30.32,0.5,Calm,Calm,-,N/A,Fog,Light Freezing Fog,0,2013-11-14 07:53:00